Wind_Speed
36 35 34 34 33 35 29 32 29 30 26 24 29 28 27 26 25 25 23 22 23 22 19 16 9 11 11 10 10 6 7 7 2 12 16 16 18 17 17 18 21 23 20
37 36 37 36 34 34 35 30 33 29 29 35 30 30 29 30 29 29 27 22 22 24 20 16 14 12 15 14 12 10 10 12 11 12 17 18 15 13 15 18 19 22 21
37 38 37 35 35 36 36 36 29 32 33 32 33 35 33 34 33 35 32 27 24 24 21 20 18 17 16 14 12 14 13 11 11 14 18 20 23 22 23 22 24 24 22
38 38 37 37 38 38 35 34 35 34 35 32 34 32 32 33 35 35 29 26 26 23 21 20 18 18 18 19 19 17 16 15 14 16 24 18 16 18 21 17 17 19 20
39 38 38 37 38 35 34 34 35 35 32 32 29 29 30 30 29 28 27 26 26 23 21 21 19 18 18 20 19 19 18 16 15 16 17 19 20 19 17 21 21 21 23
38 39 38 38 37 37 35 34 31 31 30 30 30 30 28 27 27 28 26 24 27 24 22 19 19 19 22 24 26 21 20 18 21 20 17 19 19 19 18 19 18 17 15
34 37 37 37 36 34 33 30 29 29 29 29 28 27 23 23 26 24 31 27 24 23 22 20 19 20 19 19 18 17 21 22 23 23 25 21 21 21 21 20 17 17 19
29 34 34 33 33 32 30 29 28 26 25 22 21 22 25 20 20 21 17 21 26 24 23 22 23 22 19 17 21 21 24 23 28 23 22 24 25 23 19 19 23 24 25
33 28 33 28 29 28 27 24 22 20 18 19 19 21 18 19 20 21 22 26 29 26 21 20 19 21 24 23 24 22 25 24 22 19 23 25 25 22 23 23 24 17 17
27 28 25 26 27 25 23 20 20 20 17 17 19 19 20 24 22 22 23 25 22 23 23 25 25 26 24 23 20 21 15 16 13 16 15 13 16 24 26 26 32 20 18
23 22 21 21 21 20 18 20 16 15 14 17 17 18 21 24 21 19 20 26 22 20 26 24 23 19 21 21 18 14 12 14 15 14 15 20 23 26 25 20 12 15 16
22 21 20 19 18 16 17 15 16 16 15 15 15 16 17 16 15 16 17 22 19 14 10 9 13 14 16 13 11 12 15 15 15 14 16 20 21 11 12 15 21 23 22
23 22 20 19 15 20 20 18 17 15 14 14 14 14 14 10 11 13 15 16 16 20 13 14 11 9 11 9 10 12 13 13 12 15 17 12 16 16 18 20 18 17 18
24 21 22 21 19 19 19 19 15 13 11 11 12 8 7 8 10 10 12 14 13 13 11 3 6 6 8 10 13 13 14 12 10 12 15 15 13 14 17 17 18 18 21
23 20 20 22 20 19 16 12 12 11 11 11 12 12 11 13 14 12 8 9 11 11 8 8 11 9 14 19 19 16 15 14 17 13 9 11 14 17 15 16 17 22 21
21 19 19 19 17 14 15 12 11 11 9 8 10 13 10 9 12 12 8 8 7 11 14 13 11 15 14 5 20 20 20 19 11 1 7 12 15 14 15 16 17 17 18
23 21 21 22 20 19 17 16 12 9 8 8 7 7 6 9 10 11 10 11 11 10 7 10 15 8 3 5 6 8 8 6 6 7 9 9 12 15 14 14 17 16 16
22 26 23 23 23 22 21 20 19 16 13 8 7 9 9 9 11 10 11 10 8 10 11 12 5 4 5 2 2 5 7 8 9 10 11 12 15 13 13 15 16 16 19
14 14 17 11 20 24 19 15 20 22 20 18 15 14 14 14 13 12 12 9 8 10 13 7 3 1 3 4 2 3 3 5 8 10 9 11 9 12 13 16 16 19 21
10 9 11 13 16 12 13 11 12 13 25 20 19 18 20 18 14 13 11 8 6 8 4 1 2 1 3 3 4 4 6 7 9 8 6 9 10 10 14 16 17 20 20
10 8 5 13 14 12 13 12 12 12 19 20 20 21 22 21 17 16 16 12 10 6 5 4 0 1 2 6 7 5 5 8 8 5 6 8 10 12 15 13 19 18 18
16 13 8 6 14 14 12 9 8 4 10 17 15 25 19 17 14 12 17 17 11 8 4 5 4 4 5 2 2 4 7 9 7 2 5 8 11 13 12 15 18 17 17
12 14 12 7 14 14 2 6 7 8 12 5 14 18 20 11 10 6 8 8 8 7 8 7 4 5 6 5 2 4 7 8 4 5 4 7 11 12 12 16 17 14 18
5 11 13 15 12 6 2 4 7 6 16 12 15 18 19 12 5 3 3 9 9 9 10 8 7 5 1 0 2 5 6 4 3 1 5 6 12 12 12 15 14 15 19
5 7 5 4 9 5 6 12 19 18 7 9 18 16 15 12 10 8 11 14 13 11 10 10 9 6 7 5 4 3 3 4 5 8 7 6 8 12 11 9 15 15 16
6 5 3 3 2 4 4 6 1 10 11 10 9 11 12 12 11 13 17 14 13 13 13 14 13 11 8 6 9 9 7 8 9 7 6 5 7 13 9 10 13 14 13
Wind_Direction
192 195 199 202 204 207 212 215 215 216 211 198 191 190 196 202 203 208 208 209 204 200 196 222 234 218 246 259 292 301 312 314 323 308 311 307 300 302 291 287 276 270 272
192 195 199 203 204 206 213 215 212 211 213 208 199 197 198 204 205 209 213 216 203 206 205 202 225 230 236 241 265 278 290 285 294 284 285 292 285 283 283 277 286 268 267
193 197 200 203 203 208 210 213 214 210 210 210 203 201 200 203 204 210 215 213 215 212 208 207 217 224 234 232 242 256 276 286 300 306 292 288 287 289 301 298 298 295 281
194 199 201 202 205 208 210 210 211 212 209 208 205 204 205 205 207 211 210 216 215 214 213 208 211 223 228 235 244 253 262 271 285 278 284 288 307 307 300 294 309 302 298
196 198 203 205 208 210 210 211 211 213 210 211 210 211 211 208 208 206 210 214 219 220 219 219 216 224 225 237 240 249 251 250 260 268 283 295 294 298 307 306 303 300 299
197 198 202 204 206 207 209 211 209 212 211 209 208 211 210 205 210 215 214 216 221 220 223 219 218 227 236 239 246 248 247 258 264 268 263 266 276 284 292 301 300 299 292
197 195 200 201 201 203 205 206 212 209 211 205 211 210 213 206 207 218 222 220 222 226 225 214 223 232 242 248 252 251 253 255 262 262 264 261 267 276 288 289 286 296 293
192 193 199 198 194 196 199 204 205 202 202 203 209 212 204 198 215 230 235 240 226 229 224 219 224 237 241 241 241 249 259 272 276 266 269 270 272 280 271 270 288 284 288
193 189 197 190 183 186 192 193 196 191 195 205 209 203 195 212 217 224 232 232 233 234 228 223 226 238 244 246 249 258 269 273 272 270 270 274 269 266 275 282 268 267 275
192 190 179 176 173 178 180 176 182 190 204 208 201 202 204 218 230 235 229 222 226 228 232 234 234 239 248 254 260 268 261 272 276 276 285 279 272 281 282 269 267 255 266
179 172 171 171 170 171 168 178 186 188 194 194 199 209 222 227 236 238 235 225 230 238 242 242 238 240 250 260 264 247 254 266 276 286 292 290 282 279 279 275 284 263 275
158 156 154 156 158 156 158 164 176 182 174 185 204 213 222 221 241 232 230 225 234 230 253 227 226 251 251 256 246 251 264 278 287 285 280 277 283 318 328 319 316 310 299
141 140 140 142 151 159 161 165 161 169 170 176 188 202 213 220 214 211 219 226 223 241 245 243 242 251 237 231 241 265 272 277 275 273 275 303 326 322 318 311 305 307 309
127 123 126 127 128 146 154 152 151 162 174 192 202 195 207 182 185 198 213 209 211 206 224 216 243 219 230 234 237 244 249 251 243 267 295 300 305 324 319 317 320 322 317
115 119 124 129 136 137 140 152 164 168 191 200 202 183 169 165 176 185 186 199 196 202 184 191 203 226 231 236 230 228 227 235 247 258 301 314 329 313 317 321 322 311 300
135 139 141 140 135 133 134 121 139 152 147 130 142 159 171 158 184 185 175 174 166 175 192 209 237 251 244 294 204 221 232 240 245 347 332 319 301 311 310 310 308 305 310
144 155 158 153 158 161 160 152 140 127 155 170 157 158 161 187 179 184 178 172 168 181 215 246 260 271 1 352 349 344 334 330 340 336 311 311 319 307 307 314 310 312 312
156 162 168 171 172 175 173 175 168 169 159 138 151 166 155 154 158 169 186 190 194 216 221 242 269 26 19 8 349 317 334 353 353 351 345 322 300 310 318 313 313 316 308
146 162 164 192 165 175 178 177 171 177 168 144 153 158 163 164 161 174 183 188 239 249 223 230 147 116 357 351 346 327 340 322 308 299 299 282 317 326 320 315 319 314 312
167 199 199 152 136 142 150 186 206 168 143 154 167 167 166 162 171 188 203 216 240 274 302 98 53 43 358 336 322 324 311 296 299 297 304 335 316 329 315 315 318 311 315
158 167 205 146 150 171 176 203 214 198 160 168 170 178 180 174 183 193 201 200 209 233 280 192 224 351 272 246 239 252 276 294 297 322 341 333 333 315 311 330 315 318 325
165 169 178 216 169 179 182 199 200 187 155 178 172 180 177 175 204 216 202 198 200 198 214 171 203 285 303 208 18 329 308 290 288 345 4 332 323 318 345 321 319 328 337
151 172 184 148 122 117 130 162 104 88 109 161 142 161 179 203 237 247 183 157 180 186 200 197 188 246 281 228 228 277 281 299 48 35 342 322 317 331 334 321 322 344 325
136 57 78 98 96 93 338 105 38 178 159 155 158 167 186 199 204 197 225 213 205 222 196 184 191 230 331 219 272 259 248 233 155 334 312 321 316 327 319 318 339 333 323
109 120 89 253 142 193 246 195 192 224 192 197 176 175 191 193 199 196 184 176 187 199 207 196 199 220 222 222 259 269 195 219 255 287 288 284 293 300 331 339 333 325 334
139 140 81 78 11 221 163 286 328 182 198 228 212 229 218 200 207 208 196 203 207 207 206 213 214 203 199 201 218 243 264 285 296 291 282 272 298 319 360 326 330 328 347
Height
749 755 760 764 768 772 776 779 782 788 790 793 796 800 805 809 812 815 816 818 818 816 816 823 827 827 828 830 831 831 831 831 832 831 832 831 831 829 828 827 826 825 823
741 747 751 756 761 765 769 773 777 781 785 789 792 795 799 803 805 808 812 813 813 815 815 816 821 825 826 827 827 828 828 828 829 828 828 828 826 825 823 821 820 818 817
733 738 743 748 753 756 760 766 771 775 778 781 784 787 790 794 797 799 803 806 809 810 811 812 814 819 821 823 824 825 826 825 825 826 823 822 820 819 817 814 812 811 812
724 729 734 739 743 747 753 759 764 766 770 774 778 782 785 789 792 796 800 803 804 805 807 807 810 814 816 817 819 821 822 821 821 821 820 817 815 814 812 810 808 807 806
713 719 724 730 735 741 747 751 755 760 764 770 774 778 781 785 789 793 797 800 802 803 804 804 804 809 810 812 814 816 817 817 815 814 812 813 811 810 809 808 805 803 801
703 709 715 722 727 732 738 744 749 755 759 764 767 771 774 778 785 789 793 795 797 799 799 800 800 802 804 807 808 810 811 810 809 809 809 807 805 806 806 805 803 801 796
694 701 707 712 718 726 733 739 744 749 754 757 762 767 771 778 780 783 786 790 792 794 795 796 797 798 801 801 803 804 804 803 804 804 801 801 802 801 802 801 799 797 794
686 693 700 705 711 719 727 732 737 742 747 753 758 762 767 772 778 780 783 785 786 788 790 790 791 793 797 798 797 798 799 798 798 798 797 797 797 796 796 795 793 790 787
678 685 692 699 706 714 721 727 733 739 745 750 754 759 764 770 774 776 778 779 781 783 785 787 787 787 789 791 792 794 795 792 793 793 792 791 791 791 791 790 787 785 782
671 678 686 694 702 710 718 725 730 736 742 746 751 756 761 765 769 769 772 774 776 778 780 780 781 782 786 787 790 790 789 788 789 789 788 787 787 786 784 783 779 780 779
670 679 686 694 702 709 716 722 729 735 741 745 749 753 757 761 764 766 767 769 771 774 775 776 776 777 780 782 783 785 786 786 785 784 784 783 781 779 776 776 775 775 775
672 680 687 696 702 709 716 722 729 734 738 743 746 750 753 757 758 760 763 766 768 770 772 772 774 775 776 777 781 781 783 782 782 781 780 778 777 775 773 773 772 770 769
674 682 690 698 704 709 714 723 729 732 736 740 743 745 749 752 754 756 758 761 764 765 767 767 768 770 773 776 778 778 779 779 779 778 777 775 773 772 770 770 769 766 764
676 685 692 697 704 711 718 722 727 732 735 738 740 743 747 748 750 752 753 755 758 759 763 765 768 768 770 772 773 774 775 775 775 775 774 773 771 769 768 768 766 763 760
679 687 695 702 708 713 717 723 727 729 732 735 738 741 742 745 748 750 753 754 755 757 761 763 766 765 766 766 767 769 770 771 771 771 770 770 769 769 766 765 763 761 757
683 692 698 705 711 716 719 725 728 729 732 735 736 738 740 743 745 748 751 754 754 757 760 762 763 762 761 761 763 765 766 767 767 767 767 767 767 766 764 762 760 757 753
684 692 697 703 709 714 718 722 727 731 731 734 736 739 742 742 745 746 749 752 754 757 758 759 760 758 759 761 762 763 764 765 764 765 766 765 765 763 761 759 757 754 750
682 688 694 696 702 708 711 716 721 726 728 732 736 739 741 743 744 746 750 752 754 754 755 755 756 757 758 760 761 763 763 763 764 764 764 764 762 760 759 757 754 751 747
683 687 685 691 697 702 707 711 715 720 724 729 735 738 739 741 743 746 749 751 752 751 751 752 753 756 758 759 760 761 762 763 763 763 762 761 760 759 757 755 752 749 744
684 686 689 689 695 700 704 708 711 714 720 725 731 732 735 738 742 744 747 748 749 749 750 750 753 755 757 759 760 761 762 761 761 760 760 760 759 758 756 753 750 746 741
683 691 690 689 694 700 703 707 709 710 714 721 725 727 727 733 737 739 742 744 746 748 749 750 753 755 756 757 758 759 760 759 759 758 758 759 758 757 754 752 749 744 740
684 689 690 691 694 699 700 704 706 708 710 716 719 722 726 732 734 735 736 740 743 744 747 749 751 753 754 754 756 757 758 758 757 757 757 758 757 755 753 751 747 743 739
685 688 688 693 695 696 703 705 708 710 713 722 720 723 728 730 732 734 735 738 741 743 744 746 749 752 753 752 754 756 757 757 756 756 758 758 757 755 753 750 747 743 740
687 690 690 693 695 698 703 705 712 714 714 716 719 723 726 729 730 731 734 736 738 741 742 743 746 749 750 752 753 754 754 754 755 756 758 758 756 754 752 749 746 743 739
692 692 693 698 696 699 704 705 704 708 709 712 718 720 722 723 726 730 732 733 736 737 739 741 743 745 748 750 752 752 752 753 755 756 756 756 755 752 751 749 746 743 739
691 693 694 694 701 700 700 703 703 705 709 710 710 714 717 719 723 727 729 730 732 734 736 737 739 742 744 746 749 750 752 753 753 754 753 753 753 751 750 749 746 743 740